STARLINK-38356, 100504

Orbit data source: Space-Track

STARLINK-38356, 100504 is a payload satellite owned by SpaceX/Seattle (US) in LEO that was launched on Wed, 26 Aug 2026 UTC launched from the Air Force Western Test Range (AFWTR). Payload-class satellites include a variety of spacecraft equipped with specific instruments for various scientific and technological missions. These include communications satellites like Starlink; space stations such as the ISS; scientific satellites like the Hubble; Earth observation satellites from companies like Planet Labs, Umbra, and HawkEye 360; GPS; miniature CubeSats for education and research; and military/defense satellites.

Loading next visibility...
Identifier
100504, 2026-197C
Orbit
LEO
Country
Flag of USUS
Related business
Manufacturer
SpaceX/Seattle
Mission
Operational spacecraft
Bus & Motor
STARLINK V2MO, Unknown motor
Mass
575 kg wet, ~530 kg dry
Launch date (UTC)
2026-08-26 (2 weeks ago)
Launch vehicle
Unknown
Launch site
Air Force Western Test Range (AFWTR)
Object type
Payload
Rocket body
Debris
Shape & HBR
BOX + PAN, 17.7 m
Radar Cross Section
RCS unknown

Expand to show TLE details & history
Last TLE update: 5 hours ago

TLE from 5 hours ago
0 STARLINK-38356
1 A0504U 26197C   26251.60280788  .00163719  00000-0  78195-3 0  9999
2 A0504  69.9993 155.4534 0003497 274.7256  85.3546 15.82190464  2114
Epoch: 2026-09-08T14:28Z
TLE epoch observation values (Epoch: 2026-09-08T14:28:02.600Z)
Latitude
-0.0001°
Longitude
-49.22433°
Altitude
326.572 km
Speed
7.713 km/s
True Right ascension
10h 21m 48s
True Declination
0° 00' 00"
Sunlit
Object was in daylight at epoch
Visualization orbit readout
Latitude
Unknown
Longitude
Unknown
Altitude
Unknown
Speed
Unknown
Apparent Right ascension
Unknown
Apparent Declination
Unknown
Sunlit
N/A
Visualization observer readout
Local Sidereal Time
11:20:36
Azimuth
Unknown
Elevation
Unknown
Doppler factor
Unknown
Orbital elements
Apogee altitude
324.463 km
Perigee altitude
319.777 km
Semi-major axis
6,700.257 km
Eccentricity
0.00035
Inclination
69.9993°
RAAN
155.4534°
Arg. of periapsis
274.7256°
True anomaly
85.39454°
Mean anomaly
85.3546°
Eccentric anomaly
85.37457°
Mean motion
3.95736 °/min
Orbital period
90.97 mins
BSTAR
0.00078195
Loading maneuver chart data...
Computing Atmospheric mass density...
Loading historical data...
Loading historical data...
Loading historical data...
Loading historical data...
Loading historical data...
Loading historical data...
Loading historical data...

Documentation

Showing up to 5 results
|